Regional Weather Roundup
Issued by NWS

Current Version | Previous Version | Text Only | Print | Product List | Glossary On
Versions: 1 2 3 4 5 6 7 8 9 10 11 12 13 14 15 16 17 18 19 20 21 22 23 24 25 26 27 28 29 30 31 32 33 34 35 36 37 38 39 40 41 42 43 44 45 46 47 48 49 50
000
ASUS44 KOUN 262210
RWROK

WEATHER ROUNDUP FOR OKLAHOMA
NATIONAL WEATHER SERVICE NORMAN OK
400 PM CST SUN JAN 26 2020

NOTE: "FAIR" INDICATES FEW OR NO CLOUDS BELOW 12,000 FEET WITH NO
      SIGNIFICANT WEATHER AND/OR OBSTRUCTIONS TO VISIBILITY.

OKZ001>007-009>012-014-015-017-262300-
NORTHWEST OKLAHOMA AND THE PANHANDLE

CITY           SKY/WX    TMP DP  RH WIND       PRES   REMARKS
GAGE           SUNNY     65  25  22 N6        29.99S
GUYMON         SUNNY     60  25  26 S3        30.00S
$$

OKZ016-021>023-033>039-044-045-262300-
SOUTHWEST OKLAHOMA

CITY           SKY/WX    TMP DP  RH WIND       PRES   REMARKS
LAWTON/REGL    SUNNY     67  36  31 VRB6      29.98F
LAWTON/FT SILL SUNNY     65  35  32 NE6       29.96F
FREDERICK      SUNNY     65  39  38 CALM      29.96F
CLINTON        SUNNY     63  32  31 N3        29.99F
HOBART         SUNNY     65  35  33 NE7       29.99F
ALTUS AFB      SUNNY     66  30  26 E3        29.98F
$$

OKZ018>020-024>031-262300-
CENTRAL OKLAHOMA

CITY           SKY/WX    TMP DP  RH WIND       PRES   REMARKS
OKLAHOMA CITY  SUNNY     59  38  45 N7        29.99S
OKC/WILEY POST SUNNY     61  39  44 N6        29.99F
OKC/TINKER AFB SUNNY     61  37  41 N9        29.98S
STILLWATER     SUNNY     61  35  37 W3        29.98F
GUTHRIE        SUNNY     60  38  43 CALM      29.98F
$$

OKZ008-013-054>072-262300-
NORTHEAST OKLAHOMA

CITY           SKY/WX    TMP DP  RH WIND       PRES   REMARKS
TULSA          MOSUNNY   60  39  45 W3        29.97R
TULSA/JONES    SUNNY     62  40  44 N7        29.97F
PONCA CITY     SUNNY     58  37  45 NW6       29.99S
BARTLESVILLE   SUNNY     59  38  45 N3        29.98F
MUSKOGEE       SUNNY     60  44  55 N6        29.98S
$$

OKZ032-040>043-046>053-073>077-262300-
SOUTH CENTRAL/SOUTHEAST OKLAHOMA

CITY           SKY/WX    TMP DP  RH WIND       PRES   REMARKS
ARDMORE/DWNTWN SUNNY     63  43  48 CALM      29.98S
MCALESTER      MOSUNNY   60  48  64 CALM      29.97F
$$




USA.gov is the U.S. government's official web portal to all federal, state and local government web resources and services.